CAPE
90 540 719 283 395 900 1346 1376 2331 2589 3494 4413 4544 4256 4532 4568 4641 2714 2328 2773 1582 771 633 856 2807 1666 1157 463 619 653 628 268 132
24 362 666 449 267 379 982 1342 2195 2641 3483 4139 4334 3238 4648 4682 4617 4462 2654 3201 3465 1702 1741 703 1153 1645 1021 616 663 706 777 162 550
10 130 633 531 332 354 897 882 1501 2422 3071 3942 3641 3764 4137 3927 4284 4659 4431 4495 4161 2856 2343 1931 2078 1412 960 705 710 637 581 634 372
18 61 501 651 395 399 634 679 1041 1654 2295 3220 3457 3581 3696 3833 3711 3851 4517 4317 4078 3805 2606 2670 1907 1950 1123 668 926 373 429 512 293
50 44 261 608 541 500 576 899 769 1037 1522 1582 2649 3060 3814 3886 4009 3961 3808 4364 4249 4189 3441 2714 2356 2032 1410 1112 850 777 660 459 226
32 67 84 518 666 695 761 879 1170 865 1374 1084 1462 2811 3043 3697 3691 4136 3873 4406 4276 4181 3661 3144 1741 1717 1115 1202 597 401 496 867 888
0 3 484 375 774 1326 1436 1667 1856 1737 1423 1058 1345 1798 2101 3089 3737 3765 3893 4382 4290 4343 4014 3034 1692 1906 1458 1008 351 426 276 586 597
0 0 195 866 1099 2330 2724 2519 2651 2527 2100 2269 1811 2401 2431 2942 3741 3980 4128 4119 4437 4395 3657 2711 1965 1760 1415 887 460 265 75 503 571
0 3 21 937 1220 1703 3066 3016 3326 3262 3071 3059 2789 3370 3204 3519 4338 4131 4172 4404 4527 4369 3764 2785 2092 1564 1118 460 153 0 94 533 597
0 1 67 250 1117 1533 2412 2500 3635 3523 3828 3418 3640 3969 4528 4299 4818 4753 4784 4624 4542 4130 3722 2411 1792 1311 737 456 100 0 0 0 247
59 187 235 176 963 1521 2558 2276 2394 3080 3080 4214 4333 4608 4476 4761 4835 5073 4932 4553 4347 3739 2676 1743 1703 1306 587 199 250 0 0 0 83
42 38 166 170 1198 1483 3009 2948 3527 3654 3475 3969 4236 4439 4584 4673 4739 4768 4779 4271 3805 2849 2050 1571 1072 828 521 479 868 0 0 0 0
7 255 233 362 1421 1681 2672 3228 2600 3233 2973 3309 3641 3906 3859 4359 4452 4606 4203 3782 3163 2827 2245 1420 795 570 353 221 776 5 0 0 330
66 471 456 1544 1925 2759 3292 2861 2643 3613 3404 3197 3024 2911 3007 3634 3816 4184 4108 3652 2891 2463 2136 1409 1008 554 659 916 913 659 0 0 175
909 897 1233 1825 2308 2468 2829 2986 3299 3752 3564 3535 3709 3708 3664 3754 4074 3356 3115 3084 2569 2033 1240 712 567 677 826 1168 1413 432 0 0 8
1757 1804 1699 1759 2036 2295 2691 3120 3176 3710 4618 4303 4160 3959 4254 3999 3467 2721 2650 2371 1872 1391 895 592 586 729 1384 1439 883 1303 0 0 0
1557 1756 1849 1921 2077 2249 3248 3616 3475 3606 3349 3481 3520 3739 2930 2683 2344 1862 1717 1652 1234 875 806 818 911 1069 1198 1079 874 122 342 27 0
1091 1064 1135 1471 1831 2059 2420 2687 2689 2731 2937 3178 3075 2183 1732 1554 1334 1407 726 165 404 821 52 340 1073 840 1107 735 615 528 130 35 99
1276 1137 1151 1271 1580 1969 2418 2587 2684 2769 2915 2721 2375 2120 1744 1574 1409 713 390 39 2 0 0 2 0 0 92 0 0 0 0 0 0
54 671 1183 1323 1537 1791 2182 2248 2305 2396 2576 2507 2479 2157 2148 1569 1393 1125 1127 953 811 418 0 0 0 0 0 0 0 0 0 0 0
CIN
-1 -4 -18 -43 -76 -91 -86 -94 -23 -5 0 0 0 0 0 0 0 0 -3 0 -12 -77 -66 -42 -1 -24 -61 -129 -73 -65 -52 -79 -97
-1 0 -16 -34 -86 -104 -119 -123 -88 -42 0 0 0 0 0 0 0 0 -3 0 -2 -31 -18 -59 -55 -45 -84 -114 -90 -62 -44 -136 -20
0 -1 -9 -23 -58 -111 -108 -146 -105 -71 -26 -7 -3 0 0 0 0 0 0 0 0 -2 -2 -4 -3 -51 -107 -125 -78 -65 -50 -39 -45
0 0 -6 -13 -47 -70 -97 -138 -122 -90 -80 -36 -25 -3 0 0 -2 0 0 0 0 0 -10 -16 -7 -20 -56 -97 -64 -93 -38 -22 -18
0 -2 -4 -14 -21 -51 -78 -105 -132 -123 -87 -104 -84 -45 -3 -9 -2 -1 -4 0 0 0 -3 -4 -16 -25 -40 -45 -42 -17 -33 -3 -17
-6 0 -1 -7 -15 -27 -61 -89 -103 -118 -74 -89 -95 -62 -50 -21 -21 -6 -12 0 0 0 -5 -3 -69 -40 -93 -48 -76 -143 -83 -61 -2
0 -2 -21 -9 -16 -20 -30 -69 -102 -103 -81 -76 -78 -78 -75 -51 -44 -35 -12 0 0 0 -1 -26 -91 -60 -81 -98 -192 -186 -162 -155 -26
0 0 -8 -30 -29 -17 -42 -67 -88 -97 -58 -51 -58 -51 -54 -60 -39 -15 -1 0 0 0 -3 -42 -85 -99 -108 -136 -224 -268 -357 -152 -26
0 -23 -3 -33 -46 -49 -47 -74 -65 -84 -69 -29 -42 -20 -36 -29 -3 -12 -5 0 0 0 -3 -32 -65 -129 -186 -306 -338 0 -262 -150 -10
0 -2 -6 -7 -52 -80 -75 -97 -81 -67 -65 -47 -23 -28 -2 -2 -1 -2 -1 0 0 -1 -6 -64 -129 -112 -173 -238 -323 0 0 0 -46
-74 -34 -10 -7 -27 -71 -75 -92 -94 -79 -92 -69 -42 -35 -34 -1 0 0 0 -5 -5 -29 -64 -128 -106 -114 -189 -278 -184 0 0 0 -93
-49 -62 -16 -1 -34 -66 -86 -80 -71 -92 -92 -95 -69 -57 -37 -8 -5 -3 0 -14 -27 -75 -126 -166 -197 -200 -254 -172 -32 0 0 0 -2
-5 -32 -30 -9 -44 -63 -99 -97 -116 -133 -139 -134 -123 -82 -75 -30 -20 -9 -22 -37 -62 -56 -81 -157 -239 -247 -256 -261 -33 -226 0 0 -30
-42 -52 -47 -29 -58 -63 -139 -156 -122 -124 -134 -159 -159 -139 -116 -56 -35 -20 -19 -32 -60 -67 -70 -134 -176 -219 -145 -66 -12 -38 0 0 -45
-49 -41 -55 -82 -95 -149 -173 -144 -119 -81 -99 -96 -70 -42 -29 -23 -9 -26 -48 -51 -62 -79 -161 -231 -240 -138 -61 -8 0 -19 0 0 -99
-77 -84 -135 -136 -162 -198 -204 -137 -100 -51 -1 -1 -6 -12 -7 -13 -36 -79 -83 -82 -106 -135 -184 -219 -155 -65 -3 0 -15 0 0 0 0
-50 -61 -83 -128 -151 -115 -89 -34 -16 -8 -49 -32 -22 -9 -74 -89 -102 -139 -139 -121 -149 -187 -138 -74 -18 -2 -2 -4 -1 -40 -7 -58 0
-40 -82 -130 -149 -121 -91 -113 -80 -63 -60 -47 -36 -57 -135 -183 -186 -196 -157 -306 -255 -114 -119 -241 -40 0 -1 0 0 0 -9 -14 -50 -111
-20 -44 -88 -136 -116 -60 -41 -47 -50 -48 -40 -60 -97 -114 -133 -125 -125 -232 -304 -309 -21 0 0 0 0 0 -9 0 0 0 0 0 0
-530 -141 -70 -76 -57 -44 -37 -45 -50 -44 -23 -28 -12 -9 -6 -33 -22 -47 -20 -7 -11 -48 0 0 0 0 0 0 0 0 0 0 0
Wind_Speed
15 22 22 24 25 23 21 22 20 20 20 19 18 18 16 14 15 12 11 11 8 9 8 8 11 11 10 8 8 7 6 6 6
12 20 23 26 25 24 22 22 22 21 19 19 19 20 15 15 14 15 13 12 12 9 9 7 10 12 11 10 9 9 7 7 7
13 18 22 23 23 24 21 23 22 21 20 19 18 18 17 16 16 15 13 11 11 12 9 8 11 11 12 11 9 9 8 7 7
14 17 19 21 23 23 23 23 22 22 21 20 20 18 17 17 16 17 15 14 13 11 8 12 10 11 11 10 10 8 7 7 6
16 16 18 19 22 23 23 23 23 23 23 23 21 19 17 18 16 16 17 16 14 13 13 11 12 12 11 11 7 8 9 8 9
19 5 10 18 19 22 24 24 22 24 23 24 23 20 20 18 18 18 18 17 15 15 14 13 13 14 12 13 11 13 12 13 10
10 8 8 12 17 19 22 22 21 20 22 23 22 23 21 19 20 19 17 15 16 16 16 16 15 16 16 15 13 14 12 12 11
16 14 11 13 16 15 17 19 20 20 19 19 20 19 20 19 18 17 16 16 16 15 16 16 17 18 18 16 16 12 13 11 11
17 17 13 14 16 17 18 19 18 19 19 18 19 18 19 18 17 17 16 15 15 15 15 15 16 19 19 16 10 9 12 12 10
20 21 20 12 15 18 18 20 17 18 18 16 16 16 15 15 16 17 16 14 14 16 17 15 17 15 15 16 13 8 10 9 11
20 21 22 15 14 17 18 20 20 18 18 16 16 15 15 13 14 15 14 15 16 14 13 14 14 14 15 13 12 10 7 7 9
22 18 18 13 14 16 16 18 17 17 17 16 15 15 14 13 14 14 14 15 14 12 13 12 12 12 14 13 10 11 13 11 9
21 13 13 11 14 17 18 16 19 18 18 17 16 15 15 13 13 13 14 12 11 11 12 11 10 12 13 14 14 13 16 15 7
14 14 15 10 15 13 14 15 17 17 17 17 16 14 14 13 12 12 12 10 9 10 8 8 10 10 11 14 13 11 13 14 8
6 9 13 16 14 14 15 14 14 13 13 13 13 13 12 12 11 10 7 9 8 9 9 8 8 10 10 8 7 8 11 13 14
9 11 12 13 14 14 14 12 12 13 12 11 11 11 12 12 8 8 8 10 9 8 9 8 8 10 9 6 5 6 8 10 8
12 13 13 14 16 14 14 12 12 12 12 11 11 11 11 9 9 9 8 7 8 7 6 6 4 3 3 5 6 7 7 6 5
12 12 14 14 15 13 15 14 12 11 9 11 12 11 10 9 9 9 8 7 2 5 4 0 5 8 7 4 5 4 6 2 7
11 11 12 13 15 14 14 14 13 11 11 11 12 13 11 11 9 9 8 8 8 14 12 5 8 11 5 4 7 11 12 9 9
12 10 12 13 13 11 12 12 12 11 10 12 12 9 10 10 12 10 9 8 10 9 6 11 11 10 8 4 11 11 12 10 10
Wind_Direction
199 188 202 203 201 201 194 197 196 195 187 189 192 196 198 195 206 214 211 205 224 207 220 191 148 183 184 214 190 209 179 210 228
208 184 201 202 198 197 195 196 195 195 192 189 193 196 192 197 200 217 212 215 196 221 210 193 174 176 192 193 203 201 182 231 193
212 196 202 202 197 195 195 196 195 194 193 190 194 197 194 197 202 204 223 207 205 214 200 227 165 183 190 189 193 194 203 198 213
218 202 200 205 196 197 193 194 195 193 195 194 194 198 195 200 201 204 205 218 203 199 216 181 199 186 195 188 177 185 212 254 285
210 198 191 207 203 196 194 196 196 193 194 198 197 197 197 197 200 203 206 210 203 192 207 192 199 179 188 183 175 180 170 255 266
249 144 198 192 207 198 197 195 198 197 194 199 198 197 197 199 200 203 209 200 204 196 193 197 188 188 180 178 183 175 196 180 233
240 218 200 226 205 207 196 194 194 198 195 199 199 194 202 199 203 207 204 203 200 194 195 198 191 186 184 184 191 189 192 172 207
247 243 182 215 222 208 200 191 191 195 200 195 197 194 198 200 197 202 205 204 203 200 200 198 192 185 186 189 197 195 184 181 204
246 267 246 203 218 220 195 195 199 189 197 197 197 193 200 195 189 195 203 202 201 201 199 201 201 198 192 190 201 208 191 168 212
247 252 257 213 216 219 201 197 194 196 192 200 193 204 196 197 186 193 194 195 202 200 200 193 202 208 202 200 203 218 204 184 218
235 239 251 238 208 209 198 199 193 196 188 193 198 192 199 193 193 189 188 197 208 192 193 199 205 202 208 210 218 201 234 197 216
246 241 249 223 199 201 192 194 180 182 181 185 192 186 191 198 194 194 197 203 202 185 189 198 204 207 206 213 226 183 188 196 201
223 246 254 228 190 189 180 189 176 177 181 182 187 186 186 189 192 195 199 195 194 185 189 192 190 206 212 212 222 189 197 198 201
223 219 230 182 182 176 172 183 177 178 175 179 177 173 175 182 187 194 196 176 177 186 193 184 189 205 211 218 210 216 165 186 208
207 207 186 177 166 169 167 176 155 171 160 153 155 158 166 173 176 190 167 159 155 167 168 175 184 207 216 216 224 210 193 194 213
159 168 174 154 145 153 145 141 160 148 138 139 143 153 157 164 135 128 141 149 153 164 170 180 195 207 217 212 193 183 138 168 185
121 120 121 120 125 133 121 125 127 120 133 141 145 139 118 124 132 127 144 156 154 161 174 186 188 213 206 203 209 181 180 201 194
93 98 108 113 117 120 111 108 111 113 125 138 125 126 129 132 134 139 118 77 94 149 77 203 195 219 218 178 160 160 58 170 212
82 98 100 99 97 99 103 107 113 117 126 126 132 136 147 150 137 132 132 135 112 47 74 70 57 49 87 95 86 114 108 109 96
40 59 84 91 94 102 109 114 112 121 130 140 161 160 136 147 152 143 162 159 157 156 98 78 60 61 85 98 133 132 134 127 109